TimeCST,TemperatureF,Dew PointF,Humidity,Sea Level PressureIn,VisibilityMPH,Wind Direction,Wind SpeedMPH,Gust SpeedMPH,PrecipitationIn,Events,Conditions,WindDirDegrees,DateUTC
12:15 AM,15.4,10.4,80,29.70,10.0,SW,4.6,-,N/A,,Clear,230,2013-12-21 06:15:00
12:35 AM,16.9,11.3,79,29.69,10.0,WSW,5.8,-,N/A,,Clear,250,2013-12-21 06:35:00
12:55 AM,17.6,11.8,78,29.69,10.0,WSW,9.2,-,N/A,,Clear,250,2013-12-21 06:55:00
1:15 AM,18.3,12.2,77,29.67,10.0,West,9.2,-,N/A,,Clear,270,2013-12-21 07:15:00
1:35 AM,17.2,11.3,78,29.67,10.0,SW,4.6,-,N/A,,Clear,220,2013-12-21 07:35:00
1:55 AM,17.6,11.8,78,29.67,10.0,WSW,6.9,-,N/A,,Clear,250,2013-12-21 07:55:00
2:15 AM,14.9,10.0,81,29.67,10.0,SW,3.5,-,N/A,,Clear,230,2013-12-21 08:15:00
2:35 AM,15.8,10.8,80,29.67,10.0,SW,3.5,-,N/A,,Clear,230,2013-12-21 08:35:00
2:55 AM,15.8,10.8,80,29.67,10.0,West,8.1,-,N/A,,Clear,260,2013-12-21 08:55:00
3:15 AM,15.3,10.4,81,29.67,10.0,West,4.6,-,N/A,,Clear,270,2013-12-21 09:15:00
3:35 AM,14.9,10.4,82,29.68,10.0,WSW,5.8,-,N/A,,Clear,250,2013-12-21 09:35:00
3:55 AM,14.0,9.7,83,29.67,10.0,Calm,Calm,-,N/A,,Clear,0,2013-12-21 09:55:00
4:15 AM,14.0,9.9,84,29.67,10.0,WSW,3.5,-,N/A,,Clear,250,2013-12-21 10:15:00
4:35 AM,13.1,8.4,82,29.67,10.0,Calm,Calm,-,N/A,,Clear,0,2013-12-21 10:35:00
4:55 AM,10.4,6.6,85,29.67,10.0,Calm,Calm,-,N/A,,Clear,0,2013-12-21 10:55:00
5:15 AM,9.9,6.8,87,29.67,10.0,WSW,4.6,-,N/A,,Clear,250,2013-12-21 11:15:00
5:35 AM,10.4,6.6,85,29.67,10.0,WSW,3.5,-,N/A,,Clear,250,2013-12-21 11:35:00
5:55 AM,12.4,9.0,86,29.66,10.0,Calm,Calm,-,N/A,,Clear,0,2013-12-21 11:55:00
6:15 AM,11.1,7.5,85,29.67,10.0,Calm,Calm,-,N/A,,Clear,0,2013-12-21 12:15:00
6:35 AM,8.8,5.7,87,29.69,10.0,Calm,Calm,-,N/A,,Clear,0,2013-12-21 12:35:00
6:55 AM,9.7,6.4,87,29.69,10.0,Calm,Calm,-,N/A,,Clear,0,2013-12-21 12:55:00
7:15 AM,10.4,7.0,86,29.69,10.0,Calm,Calm,-,N/A,,Clear,0,2013-12-21 13:15:00
7:35 AM,9.5,5.7,85,29.70,10.0,Calm,Calm,-,N/A,,Clear,0,2013-12-21 13:35:00
7:55 AM,8.4,5.0,86,29.71,10.0,Calm,Calm,-,N/A,,Clear,0,2013-12-21 13:55:00
8:15 AM,9.3,6.1,87,29.73,10.0,Calm,Calm,-,N/A,,Clear,0,2013-12-21 14:15:00
8:35 AM,10.4,6.8,85,29.74,10.0,Calm,Calm,-,N/A,,Clear,0,2013-12-21 14:35:00
8:55 AM,11.8,8.4,86,29.74,10.0,Calm,Calm,-,N/A,,Clear,0,2013-12-21 14:55:00
9:15 AM,13.1,9.7,86,29.73,10.0,Calm,Calm,-,N/A,,Clear,0,2013-12-21 15:15:00
9:35 AM,15.8,12.4,86,29.73,10.0,Calm,Calm,-,N/A,,Clear,0,2013-12-21 15:35:00
9:55 AM,18.1,14.0,84,29.72,10.0,Calm,Calm,-,N/A,,Clear,0,2013-12-21 15:55:00
10:15 AM,19.9,15.4,83,29.74,10.0,ENE,3.5,-,N/A,,Clear,70,2013-12-21 16:15:00
10:35 AM,21.4,15.6,78,29.76,10.0,East,6.9,-,N/A,,Clear,90,2013-12-21 16:35:00
10:55 AM,22.1,16.5,79,29.76,10.0,East,5.8,-,N/A,,Clear,80,2013-12-21 16:55:00
11:15 AM,23.5,17.4,77,29.76,10.0,ENE,3.5,-,N/A,,Clear,60,2013-12-21 17:15:00
11:35 AM,24.4,17.4,75,29.76,10.0,NE,4.6,-,N/A,,Clear,50,2013-12-21 17:35:00
11:55 AM,25.3,17.4,72,29.75,10.0,NE,6.9,-,N/A,,Clear,50,2013-12-21 17:55:00
12:15 PM,25.5,17.4,71,29.74,10.0,NE,6.9,-,N/A,,Clear,40,2013-12-21 18:15:00
12:35 PM,26.2,17.4,69,29.73,10.0,East,5.8,-,N/A,,Clear,80,2013-12-21 18:35:00
12:55 PM,26.6,16.9,67,29.73,10.0,ENE,3.5,-,N/A,,Clear,70,2013-12-21 18:55:00
1:15 PM,27.7,17.2,65,29.74,10.0,ENE,6.9,-,N/A,,Clear,60,2013-12-21 19:15:00
1:35 PM,28.0,16.7,62,29.74,10.0,ENE,6.9,-,N/A,,Clear,70,2013-12-21 19:35:00
1:55 PM,28.9,16.9,61,29.73,10.0,ENE,9.2,-,N/A,,Clear,60,2013-12-21 19:55:00
2:15 PM,29.3,17.1,60,29.74,10.0,NE,9.2,-,N/A,,Clear,50,2013-12-21 20:15:00
2:35 PM,29.3,16.3,58,29.74,10.0,NE,11.5,-,N/A,,Clear,40,2013-12-21 20:35:00
2:55 PM,28.0,16.7,62,29.73,10.0,NNE,11.5,-,N/A,,Clear,30,2013-12-21 20:55:00
3:15 PM,28.0,16.5,62,29.74,10.0,NE,12.7,-,N/A,,Clear,40,2013-12-21 21:15:00
3:35 PM,27.1,16.7,65,29.75,10.0,NE,11.5,-,N/A,,Clear,50,2013-12-21 21:35:00
3:55 PM,26.2,17.6,70,29.76,10.0,ENE,13.8,-,N/A,,Clear,60,2013-12-21 21:55:00
4:15 PM,25.2,17.4,72,29.78,10.0,NE,11.5,-,N/A,,Clear,50,2013-12-21 22:15:00
4:35 PM,23.9,17.6,77,29.80,10.0,NE,10.4,-,N/A,,Clear,40,2013-12-21 22:35:00
4:55 PM,23.0,16.9,77,29.80,10.0,NNE,10.4,-,N/A,,Clear,20,2013-12-21 22:55:00
5:15 PM,22.1,16.5,79,29.81,10.0,NNE,10.4,-,N/A,,Scattered Clouds,30,2013-12-21 23:15:00
5:35 PM,21.0,15.6,80,29.83,10.0,North,13.8,-,N/A,,Overcast,10,2013-12-21 23:35:00
5:55 PM,19.8,14.9,81,29.83,10.0,North,10.4,-,N/A,,Overcast,10,2013-12-21 23:55:00
6:15 PM,18.7,14.0,82,29.84,10.0,North,12.7,-,N/A,,Overcast,10,2013-12-22 00:15:00
6:35 PM,18.1,13.6,83,29.84,10.0,North,11.5,-,N/A,,Overcast,360,2013-12-22 00:35:00
6:55 PM,17.1,13.3,85,29.84,10.0,North,13.8,17.3,N/A,,Overcast,360,2013-12-22 00:55:00
7:15 PM,16.3,12.7,86,29.85,10.0,North,12.7,-,N/A,,Overcast,360,2013-12-22 01:15:00
7:35 PM,15.8,12.6,87,29.86,10.0,North,12.7,-,N/A,,Overcast,360,2013-12-22 01:35:00
7:55 PM,15.8,12.7,88,29.87,10.0,NNW,12.7,-,N/A,,Overcast,340,2013-12-22 01:55:00
8:15 PM,14.9,12.0,88,29.87,10.0,North,13.8,-,N/A,,Overcast,360,2013-12-22 02:15:00
8:35 PM,14.5,11.7,88,29.88,10.0,North,15.0,-,N/A,,Scattered Clouds,350,2013-12-22 02:35:00
8:55 PM,14.0,11.3,89,29.88,10.0,North,9.2,-,N/A,,Mostly Cloudy,350,2013-12-22 02:55:00
9:15 PM,14.0,11.3,89,29.88,10.0,NNW,12.7,-,N/A,,Overcast,340,2013-12-22 03:15:00
9:35 PM,13.3,10.6,89,29.89,10.0,NNW,11.5,-,N/A,,Overcast,330,2013-12-22 03:35:00
9:55 PM,13.1,10.4,89,29.90,10.0,NNW,12.7,-,N/A,,Overcast,330,2013-12-22 03:55:00
10:15 PM,12.6,9.9,89,29.91,10.0,NNW,11.5,-,N/A,Snow,Light Snow,340,2013-12-22 04:15:00
10:35 PM,12.2,9.5,89,29.91,10.0,NNW,10.4,-,N/A,Snow,Light Snow,340,2013-12-22 04:35:00
10:55 PM,11.8,9.1,89,29.91,10.0,North,9.2,-,N/A,Snow,Light Snow,350,2013-12-22 04:55:00
11:15 PM,11.3,8.6,89,29.91,5.0,NNW,8.1,-,N/A,Snow,Light Snow,340,2013-12-22 05:15:00
11:35 PM,11.3,8.6,89,29.92,7.0,NNW,10.4,-,N/A,Snow,Light Snow,330,2013-12-22 05:35:00
11:55 PM,10.9,7.7,87,29.92,7.0,North,8.1,-,N/A,Snow,Light Snow,350,2013-12-22 05:55:00